Regional Weather Roundup
Issued by NWS

Home | Current Version | Previous Version | Graphics & Text | Print | Product List | Glossary Off
Versions: 1 2 3 4 5 6 7 8 9 10 11 12 13 14 15 16 17 18 19 20 21 22 23 24 25 26 27 28 29 30 31 32 33 34 35 36 37 38 39 40 41 42 43 44 45 46 47 48 49 50

000
ASUS43 KOAX 290010
RWRNE

WEATHER ROUNDUP FOR NEBRASKA
NATIONAL WEATHER SERVICE OMAHA NE
700 PM CDT FRI AUG 28 2015

NOTES: SATELLITE DATA IS BEING USED TO AUGMENT CLOUD COVER ABOVE
       12000 FEET.
       "FAIR" INDICATES FEW OR NO CLOUDS BELOW 12,000 FEET WITH NO
       SIGNIFICANT WEATHER AND/OR OBSTRUCTIONS TO VISIBILITY.

  * THESE STATIONS DO NOT REPORT WEATHER SUCH AS RAIN...SNOW OR FOG.

NEZ001>004-019>022-054>056-290100-
NEBRASKA PANHANDLE

CITY           SKY/WX    TMP DP  RH WIND       PRES   REMARKS
SCOTTSBLUFF    SUNNY     84  51  31 NE5       30.10S
6HR MIN TEMP:  82; 6HR MAX TEMP:  90;

ALLIANCE       SUNNY     83  49  30 N9        30.09S
6HR MIN TEMP:  83; 6HR MAX TEMP:  89;

CHADRON        MOSUNNY   86  51  29 SE8       30.04S HAZE
6HR MIN TEMP:  83; 6HR MAX TEMP:  92;

KIMBALL        SUNNY     80  44  27 N7        30.16S
SIDNEY         SUNNY     84  42  22 NE13      30.13S
6HR MIN TEMP:  82; 6HR MAX TEMP:  89;

$$

NEZ057>060-069>072-079>082-290100-
SOUTHWEST NEBRASKA

CITY           SKY/WX    TMP DP  RH WIND       PRES   REMARKS
NORTH PLATTE   SUNNY     79  60  52 NE8       30.02R
6HR MIN TEMP:  77; 6HR MAX TEMP:  82;

IMPERIAL       SUNNY     85  56  37 NE9       30.05R
6HR MIN TEMP:  85; 6HR MAX TEMP:  90;

LEXINGTON      SUNNY     78  62  58 N8        30.00S
MCCOOK         SUNNY     83  61  47 N12       30.00R
6HR MIN TEMP:  83; 6HR MAX TEMP:  88;

OGALLALA       SUNNY     85  53  33 NE7       30.05R
$$

NEZ005>010-023>029-035>040-094-290100-
NORTH CENTRAL NEBRASKA

CITY           SKY/WX    TMP DP  RH WIND       PRES   REMARKS
VALENTINE      SUNNY     79  61  53 E3        30.02R
6HR MIN TEMP:  76; 6HR MAX TEMP:  82;

AINSWORTH      SUNNY     74  64  71 E3        30.03S
BROKEN BOW     SUNNY     77  62  59 NE7       30.02R
6HR MIN TEMP:  73; 6HR MAX TEMP:  80;

O`NEILL        SUNNY     74  64  69 N5        30.00S
ORD            MOSUNNY   74  61  63 N7        29.98S
6HR MIN TEMP:  71; 6HR MAX TEMP:  77;

THEDFORD       SUNNY     78  63  59 N5        30.05S
$$

NEZ041-046>049-061>064-073>077-083>087-290100-
SOUTH CENTRAL NEBRASKA

CITY           SKY/WX    TMP DP  RH WIND       PRES   REMARKS
GRAND ISLAND   CLOUDY    73  61  65 N12       29.98R
6HR MIN TEMP:  73; 6HR MAX TEMP:  78;

AURORA         CLOUDY    72  64  77 N13       29.97R
HASTINGS       CLOUDY    73  63  70 N12       29.97R
6HR MIN TEMP:  73; 6HR MAX TEMP:  80;

HEBRON         PTSUNNY   74  62  65 N8        29.94R
HOLDREGE       SUNNY     74  62  66 N8        29.99R
KEARNEY *      SUNNY     75  59  57 N16G22    29.99R
YORK           CLOUDY    72  64  78 N6        29.95S
$$

NEZ011>018-030>034-042>045-290100-
NORTHEAST NEBRASKA

CITY           SKY/WX    TMP DP  RH WIND       PRES   REMARKS
NORFOLK        SUNNY     73  63  70 N17       29.94R
6HR MIN TEMP:  69; 6HR MAX TEMP:  76;

ALBION         SUNNY     73  63  69 NW13      29.97R
BLAIR          DRIZZLE   66  63  90 NW9G16    29.90R
COLUMBUS *     CLOUDY   N/A N/A N/A N9G16     29.93S
FREMONT        CLOUDY    69  62  78 N13       29.92R
TEKAMAH        CLOUDY    66  64  93 N15       29.90R
6HR MIN TEMP:  66; 6HR MAX TEMP:  77; 6HR PCP: TRACE;

WAYNE          PTSUNNY   69  62  78 NE14G21   29.94S
$$

NEZ050>053-065>068-078-088>093-290100-
SOUTHEAST NEBRASKA

CITY           SKY/WX    TMP DP  RH WIND       PRES   REMARKS
LINCOLN        CLOUDY    73  64  73 NW7       29.92R
6HR MIN TEMP:  73; 6HR MAX TEMP:  80;

OMAHA EPPLEY   CLOUDY    71  65  81 NW8       29.88R
6HR MIN TEMP:  71; 6HR MAX TEMP:  79;

BEATRICE       PTSUNNY   73  64  75 NW13      29.91S
FALLS CITY     CLOUDY    74  72  93 NE6       29.86R
6HR MIN TEMP:  73; 6HR MAX TEMP:  84;

NEBRASKA CITY  MOSUNNY   73  62  69 NW14      29.88S
PLATTSMOUTH    PTSUNNY   72  63  74 W7G16     29.89R
$$

NEZ044-045-051>053-067-290100-
OMAHA AREA

CITY           SKY/WX    TMP DP  RH WIND       PRES   REMARKS
OMAHA EPPLEY   CLOUDY    71  65  81 NW8       29.88R
6HR MIN TEMP:  71; 6HR MAX TEMP:  79;

BLAIR          DRIZZLE   66  63  90 NW9G16    29.90R
FREMONT        CLOUDY    69  62  78 N13       29.92R
MILLARD        CLOUDY    71  65  79 NW12      29.89R
OFFUTT AFB     PTSUNNY   72  65  79 NW12      29.87R
PLATTSMOUTH    PTSUNNY   72  63  74 W7G16     29.89R
WAHOO          CLOUDY    69  64  83 N10       29.91R
$$



USA.gov is the U.S. government's official web portal to all federal, state and local government web resources and services.